[[{"header":{"parameterUnit":"m.s-1","parameterCategory":1,"la1":30.2991,"la2":30.254,"lo1":-89.0895,"lo2":-89.0444,"dy":0.0017,"dx":0.0017,"nx":28,"ny":28,"refTime":"2025-04-18T21:00:00:Z","depth":0,"parameterNumber":2,"parameterNumberName":"U-component_of_WINDS"},"data":[0,0,0,0,0,0,0,0,0,0,0,0,0,0,0,0,0,0,0,0,0,0,0,0,0,0,0,0,0,0,0,0,0,0,0,0,0,0,0,0,0,0,0,0,0,0,0,0,0,0,0,0,0,0,0,0,0,0,-3.5423,-3.5424,0,-3.5536,-3.5538,-3.5539,-3.5546,-3.5545,-3.5544,-3.5543,-3.5659,-3.5663,-3.5667,0,0,0,0,0,0,0,0,0,0,0,0,0,-3.5213,-3.5217,-3.5423,-3.5424,-3.5426,-3.5536,-3.5538,-3.5539,-3.5547,-3.5545,-3.5543,-3.5542,-3.5658,-3.5663,-3.5668,0,0,0,0,0,0,0,0,0,0,0,0,0,-3.5313,-3.5218,-3.5422,-3.5443,-3.5445,-3.5536,-3.5538,-3.554,-3.5547,-3.5545,-3.5543,-3.5541,-3.5656,-3.5662,-3.5669,-3.5747,0,0,-3.5688,-3.5691,0,0,0,0,0,0,0,0,-3.5308,-3.5321,-3.5438,-3.5441,-3.5445,-3.5525,-3.5507,-3.5609,-3.5547,-3.5508,-3.5543,-3.554,-3.5616,-3.5626,-3.5651,-3.5752,-3.5757,-3.5689,-3.5693,-3.5695,-3.5697,0,0,0,0,0,0,0,-3.5301,-3.5316,-3.5468,-3.544,-3.5444,-3.5446,-3.5458,-3.5526,-3.5572,-3.5512,-3.5512,-3.5526,-3.5618,-3.5645,-3.5654,-3.5759,-3.5689,-3.5694,-3.5698,-3.5701,-3.593,-3.5932,0,0,0,0,0,0,-3.529,-3.531,-3.5464,-3.5471,-3.537,-3.5452,-3.5465,-3.5501,-3.5571,-3.558,-3.5527,-3.5526,-3.5635,-3.5646,-3.5658,-3.5754,-3.5695,-3.5701,-3.5705,-3.5928,-3.5931,-3.5933,0,0,0,0,0,0,-3.5285,-3.5304,-3.5459,-3.5391,-3.5411,-3.5457,-3.5498,-3.5505,-3.5532,-3.5583,-3.5591,-3.5547,-3.5634,-3.5649,-3.5725,-3.5758,-3.5704,-3.571,-3.5926,-3.5929,-3.5932,-3.5946,0,0,0,0,0,0,-3.5279,-3.5302,-3.5331,-3.5392,-3.5415,-3.5524,-3.55,-3.5508,-3.5543,-3.5542,-3.5603,-3.5612,-3.5634,-3.5715,-3.5731,-3.5766,-3.5715,-3.5923,-3.5927,-3.5931,-3.5943,-3.5949,-3.5955,0,0,0,0,0,-3.5272,-3.5331,-3.5333,-3.5351,-3.5453,-3.5526,-3.5539,-3.5563,-3.5546,-3.5576,-3.5609,-3.561,-3.5752,-3.5723,-3.5741,-3.5778,-3.5921,-3.5926,-3.5931,-3.594,-3.5948,-3.5955,0,0,0,0,0,0,-3.5273,-3.5339,-3.5342,-3.5422,-3.5468,-3.5527,-3.5565,-3.5571,-3.5622,-3.5619,-3.5647,-3.5661,-3.5736,-3.5765,-3.5731,-3.5858,-3.5835,-3.5844,-3.5835,-3.5844,-3.585,-3.584,-3.5721,0,0,0,0,0,-3.5283,-3.5336,-3.5391,-3.5457,-3.548,-3.5519,-3.5551,-3.5566,-3.5615,-3.5634,-3.5673,-3.572,-3.5776,-3.5812,-3.5866,-3.5948,-3.5961,-3.5983,-3.5989,-3.5994,-3.6,-3.6046,-3.6056,-3.595,-3.595,-3.595,0,0,-3.5303,-3.5346,-3.5378,-3.5458,-3.5495,-3.555,-3.5535,-3.5594,-3.5635,-3.5643,-3.5717,-3.5747,-3.5802,-3.5881,-3.5918,-3.5908,-3.6033,-3.6,-3.6004,-3.6008,-3.6052,-3.6062,-3.6071,-3.5953,-3.5953,-3.5952,0,0,-3.5368,-3.5406,-3.5464,-3.5502,-3.5559,-3.5585,-3.56,-3.5658,-3.5678,-3.5752,-3.576,-3.581,-3.5905,-3.5944,-3.5976,-3.6058,-3.6061,-3.6075,-3.6107,-3.6151,-3.6159,-3.6167,-3.6195,-3.6205,-3.6082,-3.6082,-3.6082,0,-3.5385,-3.5468,-3.5494,-3.5552,-3.5588,-3.5599,-3.5659,-3.5695,-3.5766,-3.579,-3.5778,-3.5899,-3.5937,-3.6025,-3.6045,-3.6071,-3.6088,-3.6067,-3.6156,-3.6164,-3.6171,-3.6199,-3.6209,-3.6084,-3.6083,-3.6083,-3.6083,0,-3.5487,-3.5544,-3.5585,-3.5654,-3.5694,-3.5753,-3.5788,-3.5826,-3.5838,-3.5865,-3.5941,-3.5988,-3.6051,-3.6074,-3.6086,-3.6165,-3.6157,-3.615,-3.6127,-3.6182,-3.6208,-3.6219,-3.6085,-3.6085,-3.6085,-3.6084,0,0,-3.5553,-3.5637,-3.5651,-3.5683,-3.5747,-3.5792,-3.5853,-3.5915,-3.5946,-3.5997,-3.6047,-3.6129,-3.6124,-3.616,-3.6177,-3.6217,-3.6278,-3.6205,-3.6207,-3.6216,-3.6367,-3.637,-3.6382,-3.6281,-3.6283,-3.6285,-3.6362,0,-3.5624,-3.573,-3.5756,-3.5847,-3.59,-3.5913,-3.5965,-3.6011,-3.6039,-3.6089,-3.612,-3.6177,-3.6166,-3.6188,-3.6228,-3.6262,-3.6308,-3.6257,-3.6328,-3.633,-3.6312,-3.6396,-3.6399,-3.6469,-3.6372,-3.6374,-3.6375,0,-3.572,-3.5772,-3.5868,-3.5926,-3.595,-3.5996,-3.6056,-3.6103,-3.6156,-3.6174,-3.6216,-3.6229,-3.6293,-3.6269,-3.6357,-3.6322,-3.6353,-3.6374,-3.6378,-3.6384,-3.6355,-3.6402,-3.6492,-3.6502,-3.6392,-3.6391,-3.639,0,-3.5757,-3.5851,-3.5921,-3.5948,-3.6018,-3.605,-3.6081,-3.6132,-3.6168,-3.6221,-3.6245,-3.6304,-3.6337,-3.6383,-3.6413,-3.6392,-3.6499,-3.6477,-3.6515,-3.6514,-3.6535,-3.6533,-3.6629,-3.6558,-3.6558,-3.6557,-3.6557,0,-3.5832,-3.589,-3.5938,-3.5981,-3.6047,-3.6077,-3.6142,-3.6173,-3.6218,-3.6268,-3.6283,-3.633,-3.6367,-3.6419,-3.6443,-3.6512,-3.6527,-3.6543,-3.6548,-3.6541,-3.6538,-3.656,-3.6555,-3.656,-3.656,-3.6559,-3.6559,0,-3.5883,-3.5918,-3.5995,-3.6055,-3.6072,-3.6118,-3.617,-3.6212,-3.6242,-3.6304,-3.6321,-3.6367,-3.6428,-3.6463,-3.6541,-3.6558,-3.6634,-3.6638,-3.6616,-3.6618,-3.6654,-3.665,-3.6766,-3.6783,-3.6702,-3.6702,-3.6703,0,-3.5928,-3.5973,-3.6038,-3.6073,-3.6104,-3.6159,-3.6196,-3.6228,-3.6266,-3.6331,-3.6365,-3.6428,-3.648,-3.6578,-3.6619,-3.6679,-3.6683,-3.672,-3.6692,-3.6683,-3.6682,-3.6678,-3.6683,-3.6724,-3.6725,-3.6725,-3.6726,0,-3.6003,-3.6018,-3.6071,-3.613,-3.6174,-3.6223,-3.627,-3.6298,-3.6338,-3.638,-3.6444,-3.6484,-3.6564,-3.6626,-3.6689,-3.6722,-3.6731,-3.6735,-3.6747,-3.6738,-3.6723,-3.6731,-3.6628,-3.6731,-3.6731,-3.673,-3.673,-3.673,-3.6052,-3.6092,-3.6145,-3.6203,-3.6243,-3.6288,-3.633,-3.6366,-3.6419,-3.6486,-3.6502,-3.6569,-3.6622,-3.6708,-3.6743,-3.6796,-3.6789,-3.6806,-3.681,-3.6814,-3.6814,-3.6716,-3.6808,-3.6807,-3.6807,-3.6807,-3.6807,0,-3.6127,-3.6161,-3.6215,-3.6282,-3.6328,-3.6333,-3.6387,-3.6425,-3.6483,-3.6532,-3.6583,-3.6656,-3.6717,-3.6763,-3.6826,-3.6859,-3.6865,-3.6874,-3.6871,-3.6879,-3.6817,-3.68,-3.6869,-3.6869,-3.6869,-3.6869,-3.6869,-3.6869,-3.6171,-3.624,-3.6262,-3.6351,-3.6386,-3.645,-3.6481,-3.6522,-3.6561,-3.6642,-3.6693,-3.6723,-3.6771,-3.6837,-3.6894,-3.6906,-3.6928,-3.6936,-3.6949,-3.689,-3.6883,-3.6877,-3.6861,-3.6941,-3.6941,-3.7006,-3.7007,-3.7007]},{"header":{"parameterUnit":"m.s-1","parameterCategory":1,"la1":30.2991,"la2":30.254,"lo1":-89.0895,"lo2":-89.0444,"dy":0.0017,"dx":0.0017,"nx":28,"ny":28,"refTime":"2025-04-18T21:00:00:Z","depth":0,"parameterNumber":3,"parameterNumberName":"V-component_of_WINDS"},"data":[0,0,0,0,0,0,0,0,0,0,0,0,0,0,0,0,0,0,0,0,0,0,0,0,0,0,0,0,0,0,0,0,0,0,0,0,0,0,0,0,0,0,0,0,0,0,0,0,0,0,0,0,0,0,0,0,0,0,3.5648,3.5649,0,3.5761,3.5762,3.5763,3.5784,3.5783,3.5782,3.5781,3.5894,3.5898,3.5901,0,0,0,0,0,0,0,0,0,0,0,0,0,3.545,3.5454,3.5648,3.5649,3.5651,3.576,3.5762,3.5763,3.5784,3.5783,3.5782,3.5781,3.5893,3.5897,3.5902,0,0,0,0,0,0,0,0,0,0,0,0,0,3.5547,3.5455,3.5648,3.5674,3.5678,3.576,3.5762,3.5764,3.5784,3.5783,3.5781,3.578,3.5891,3.5897,3.5902,3.5965,0,0,3.592,3.5922,0,0,0,0,0,0,0,0,3.5541,3.5554,3.5669,3.5673,3.5677,3.5757,3.5734,3.5831,3.5785,3.5744,3.5781,3.578,3.5849,3.5858,3.5882,3.597,3.5975,3.592,3.5924,3.5926,3.5928,0,0,0,0,0,0,0,3.5534,3.5549,3.5692,3.5671,3.5675,3.568,3.5693,3.5752,3.5803,3.5747,3.5749,3.5762,3.5851,3.5877,3.5885,3.5977,3.592,3.5925,3.5929,3.5931,3.6125,3.6127,0,0,0,0,0,0,3.5523,3.5543,3.5689,3.5696,3.5604,3.5685,3.5699,3.5732,3.5802,3.5811,3.5763,3.5763,3.5868,3.5878,3.5889,3.5969,3.5926,3.5932,3.5935,3.6124,3.6126,3.6127,0,0,0,0,0,0,3.5519,3.5536,3.5684,3.562,3.5639,3.569,3.5728,3.5735,3.5761,3.5814,3.5823,3.578,3.5867,3.5881,3.5947,3.5973,3.5934,3.594,3.6122,3.6124,3.6127,3.6129,0,0,0,0,0,0,3.5513,3.5534,3.5559,3.5621,3.5643,3.574,3.5729,3.5739,3.5771,3.5772,3.5833,3.5841,3.5867,3.5938,3.5953,3.5981,3.5944,3.6119,3.6123,3.6126,3.6126,3.6131,3.6135,0,0,0,0,0,3.5506,3.5553,3.556,3.5577,3.5674,3.5742,3.5754,3.5784,3.5773,3.5798,3.5833,3.5839,3.5968,3.5945,3.5961,3.5991,3.6118,3.6122,3.6126,3.6125,3.613,3.6135,0,0,0,0,0,0,3.5492,3.5562,3.557,3.5639,3.5684,3.5745,3.5777,3.5788,3.5837,3.5835,3.5869,3.5882,3.5947,3.5975,3.5948,3.6057,3.6042,3.605,3.6036,3.6042,3.6046,3.6037,3.5949,0,0,0,0,0,3.5497,3.5546,3.5605,3.566,3.5683,3.5726,3.5757,3.5776,3.5824,3.5843,3.5882,3.5928,3.5979,3.6012,3.6062,3.6131,3.6145,3.616,3.6164,3.6167,3.6173,3.6214,3.6222,3.614,3.614,3.614,0,0,3.5507,3.5552,3.5581,3.5658,3.5696,3.5747,3.5742,3.5795,3.5833,3.585,3.5916,3.5947,3.6,3.6069,3.6101,3.6095,3.6199,3.6172,3.6174,3.6178,3.6219,3.6226,3.6233,3.6143,3.6142,3.6142,0,0,3.5553,3.5591,3.5643,3.5681,3.5739,3.5768,3.578,3.584,3.5862,3.5928,3.5943,3.5989,3.6075,3.6114,3.6145,3.6208,3.6216,3.6223,3.6245,3.6284,3.6291,3.6296,3.632,3.6328,3.6229,3.6229,3.6229,0,3.5558,3.5636,3.5667,3.5721,3.5755,3.5775,3.5828,3.5863,3.5934,3.5957,3.595,3.6061,3.6098,3.6177,3.6193,3.6217,3.6233,3.6216,3.6287,3.6293,3.6299,3.6323,3.6331,3.6229,3.6229,3.6229,3.6229,0,3.5641,3.5694,3.5729,3.5798,3.5837,3.5889,3.5929,3.5964,3.598,3.601,3.6079,3.6125,3.6185,3.6206,3.6221,3.6287,3.6282,3.6281,3.6266,3.6307,3.633,3.6339,3.623,3.623,3.623,3.6229,0,0,3.5679,3.5767,3.578,3.5812,3.5879,3.5921,3.5975,3.6036,3.6066,3.6114,3.6161,3.6235,3.6235,3.627,3.6291,3.6325,3.6375,3.632,3.6322,3.6329,3.6453,3.6454,3.6464,3.6381,3.6382,3.6384,3.6448,0,3.5733,3.5831,3.5863,3.5945,3.5996,3.6016,3.6064,3.611,3.614,3.6187,3.622,3.6273,3.6268,3.629,3.6325,3.6361,3.64,3.6357,3.6425,3.6427,3.6411,3.6475,3.6476,3.6535,3.6457,3.6459,3.646,0,3.5809,3.5861,3.5949,3.6011,3.6033,3.6075,3.6135,3.618,3.6233,3.6253,3.6293,3.6311,3.637,3.6352,3.6434,3.6404,3.6434,3.6456,3.6459,3.6466,3.6446,3.6485,3.6554,3.6563,3.6474,3.6473,3.6472,0,3.583,3.5922,3.5987,3.6014,3.6087,3.6117,3.6149,3.6201,3.6236,3.6288,3.6312,3.6369,3.64,3.6445,3.6478,3.6462,3.6557,3.6542,3.6575,3.6575,3.6594,3.6593,3.667,3.6612,3.6612,3.6612,3.6612,0,3.5888,3.5941,3.5997,3.6037,3.6098,3.6134,3.6193,3.6226,3.6272,3.6319,3.634,3.6384,3.6425,3.6474,3.6501,3.6565,3.6579,3.6596,3.6603,3.6595,3.6593,3.6615,3.6612,3.6614,3.6614,3.6613,3.6613,0,3.5921,3.5961,3.6033,3.6098,3.6116,3.6158,3.6213,3.6253,3.6285,3.6345,3.6361,3.641,3.647,3.6508,3.6582,3.66,3.6671,3.6676,3.6654,3.6657,3.6689,3.6685,3.6783,3.6798,3.673,3.673,3.6731,0,3.5956,3.5997,3.6067,3.6101,3.6134,3.6187,3.6224,3.6262,3.6299,3.6365,3.6397,3.6458,3.6509,3.6603,3.6645,3.6704,3.671,3.6741,3.6719,3.6711,3.6712,3.671,3.6715,3.6744,3.6745,3.6745,3.6745,0,3.6013,3.6032,3.6084,3.6145,3.6189,3.6237,3.6286,3.6313,3.6359,3.64,3.6462,3.6501,3.658,3.664,3.6703,3.6736,3.6749,3.6752,3.6763,3.6756,3.6742,3.6751,3.6664,3.675,3.6749,3.6749,3.6749,3.6749,3.6049,3.6088,3.6144,3.6203,3.6244,3.629,3.6332,3.637,3.6422,3.6489,3.6508,3.6573,3.6627,3.6713,3.6747,3.6799,3.6795,3.681,3.6815,3.6818,3.6819,3.6733,3.681,3.681,3.681,3.681,3.681,0,3.6109,3.6147,3.62,3.627,3.6316,3.6326,3.6381,3.6419,3.6476,3.6526,3.6577,3.6649,3.6709,3.6757,3.6819,3.6851,3.6858,3.6866,3.6864,3.6872,3.6818,3.6803,3.6859,3.6859,3.6859,3.6859,3.6859,3.6859,3.6146,3.6213,3.6238,3.6326,3.6364,3.6429,3.646,3.6503,3.6543,3.6623,3.6673,3.6705,3.6755,3.6821,3.6876,3.6889,3.6911,3.6917,3.6931,3.6881,3.6875,3.687,3.6856,3.6922,3.6922,3.6981,3.6981,3.6981]}]]